Weather History for Rawlins, WY

Change the Weather History Date:

Tuesday, February 26, 2013

  Actual Average Record
Temperature  
Mean Temperature 10 °F 27 °F  
Max Temperature 24 °F 37 °F 54 °F (1995)
Min Temperature -4 °F 16 °F -10 °F (2002)
Degree Days  
Heating Degree Days 55 38  
Month to date heating degree days 1133 1080  
Since 1 July heating degree days 5499 5879  
Cooling Degree Days 0 0  
Month to date cooling degree days 0 0  
Year to date cooling degree days 0 0  
Moisture  
Dew Point 12 °F    
Average Humidity 78    
Maximum Humidity 88    
Minimum Humidity 67    
Precipitation  
Precipitation 0.01 in 0.01 in 0.41 in (1969)
Month to date precipitation 0.19 0.38  
Year to date precipitation 0.36 0.74  
Sea Level Pressure  
Sea Level Pressure 30.02 in    
Wind  
Wind Speed 8 mph (NW)    
Max Wind Speed 23 mph    
Max Gust Speed 28 mph    
Visibility 5 miles    
Events Snow    
T = Trace of Precipitation, MM = Missing Value Source: NWS Daily Summary

Daily Weather History Graph

Daily Weather History Graph

Search for Another Location

Airport:

Trip Planner

Search our weather history database for the weather conditions in past years. The results will help you decide how hot, cold, wet, or windy it might be!

Date:

Astronomy

Feb. 26, 2013 Rise Set
Actual Time 6:47 AM MST 5:55 PM MST
Civil Twilight 6:19 AM MST 6:24 PM MST
Nautical Twilight 5:47 AM MST 6:56 PM MST
Astronomical Twilight 5:15 AM MST 7:28 PM MST
Moon 7:17 PM MST (2/26) 6:50 AM MST (2/26)
Length of Visible Light 12h 04m
Length of Day
11h 08m
Full, 99% of the Moon is Illuminated
Feb 26
Full
Mar 4
Last Quarter
Mar 11
New
Mar 19
First Quarter
Mar 27
Full

Hourly Weather History & Observations

Time (MST) Temp. Windchill Dew Point Humidity Pressure Visibility Wind Dir Wind Speed Gust Speed Precip Events Conditions
12:29 AM 19.4 °F 14.3 °F 14.0 °F 80% 29.85 in 10.0 mi Variable 3.5 mph - 0.00 in   Overcast
12:53 AM 19.9 °F - 12.9 °F 74% 29.96 in 10.0 mi Calm Calm - 0.00 in   Overcast
1:53 AM 18.0 °F 3.1 °F 10.0 °F 71% 29.95 in 10.0 mi WSW 16.1 mph 24.2 mph N/A   Partly Cloudy
2:53 AM 17.1 °F 5.0 °F 8.1 °F 68% 29.94 in 10.0 mi West 10.4 mph 19.6 mph N/A   Mostly Cloudy
3:53 AM 14.0 °F -3.0 °F 7.0 °F 74% 29.97 in 10.0 mi WSW 18.4 mph - N/A   Partly Cloudy
4:53 AM 12.9 °F 1.6 °F 7.0 °F 77% 29.96 in 10.0 mi SW 8.1 mph 17.3 mph N/A   Overcast
5:53 AM 12.0 °F 0.5 °F 5.0 °F 73% 30.01 in 10.0 mi NW 8.1 mph - N/A   Mostly Cloudy
6:53 AM 10.9 °F 0.2 °F 5.0 °F 77% 30.02 in 10.0 mi WSW 6.9 mph - N/A   Overcast
7:53 AM 12.9 °F 3.8 °F 8.1 °F 81% 30.02 in 2.5 mi WSW 5.8 mph - 0.00 in Snow Light Snow
8:02 AM 12.2 °F 4.3 °F 8.6 °F 85% 29.86 in 1.2 mi WSW 4.6 mph - 0.00 in Snow Light Snow
8:40 AM 12.2 °F 1.7 °F 8.6 °F 85% 29.87 in 0.8 mi WSW 6.9 mph - 0.00 in Snow Light Snow
8:50 AM 14.0 °F 6.5 °F 10.4 °F 86% 29.88 in 1.0 mi WSW 4.6 mph - 0.00 in Snow Light Snow
8:53 AM 14.0 °F 6.5 °F 10.0 °F 84% 30.04 in 1.0 mi WSW 4.6 mph - 0.00 in Snow Light Snow
9:25 AM 15.8 °F 8.6 °F 10.4 °F 79% 29.89 in 2.5 mi SW 4.6 mph - 0.00 in Snow Light Snow
9:43 AM 17.6 °F 7.3 °F 12.2 °F 79% 29.89 in 1.5 mi West 8.1 mph - 0.00 in Snow Light Snow
9:53 AM 17.1 °F 7.6 °F 12.9 °F 84% 30.02 in 1.5 mi West 6.9 mph - 0.00 in Snow Light Snow
10:28 AM 17.6 °F 7.3 °F 12.2 °F 79% 29.90 in 0.8 mi WNW 8.1 mph - 0.00 in Snow Light Snow
10:37 AM 17.6 °F 6.4 °F 12.2 °F 79% 29.90 in 1.0 mi WNW 9.2 mph - 0.00 in Snow Light Snow
10:49 AM 19.4 °F 10.4 °F 14.0 °F 80% 29.91 in 0.8 mi NW 6.9 mph - 0.00 in Snow Light Snow
10:53 AM 19.0 °F 9.0 °F 14.0 °F 81% 30.04 in 0.8 mi NW 8.1 mph - 0.00 in Snow Light Snow
11:31 AM 19.4 °F 9.5 °F 15.8 °F 86% 29.91 in 0.8 mi NW 8.1 mph - 0.01 in Snow Light Snow
11:43 AM 21.2 °F 9.5 °F 15.8 °F 80% 29.91 in 1.5 mi NW 11.5 mph - 0.01 in Snow Light Snow
11:53 AM 21.0 °F 9.9 °F 16.0 °F 81% 30.03 in 2.5 mi NNW 10.4 mph - 0.01 in Snow Light Snow
12:09 PM 21.2 °F 8.9 °F 17.6 °F 86% 29.91 in 3.0 mi NW 12.7 mph - 0.00 in   Overcast
12:22 PM 23.0 °F 11.7 °F 17.6 °F 80% 29.91 in 2.5 mi NNW 11.5 mph - 0.00 in Snow Light Snow
12:29 PM 23.0 °F 11.7 °F 17.6 °F 80% 29.91 in 4.0 mi NNW 11.5 mph - 0.00 in   Overcast
12:53 PM 23.0 °F 12.4 °F 17.1 °F 78% 30.03 in 3.0 mi North 10.4 mph - 0.00 in Snow Light Snow
1:37 PM 24.8 °F 16.9 °F 17.6 °F 74% 29.92 in 2.0 mi North 6.9 mph - 0.00 in Snow Light Snow
1:53 PM 24.1 °F 14.4 °F 17.1 °F 75% 30.06 in 2.5 mi North 9.2 mph - 0.00 in Snow Light Snow
2:08 PM 21.2 °F 7.3 °F 17.6 °F 86% 29.93 in 0.8 mi NNW 16.1 mph 19.6 mph 0.00 in Snow Light Snow
2:22 PM 23.0 °F 9.2 °F 15.8 °F 74% 29.94 in 2.5 mi NNW 17.3 mph - 0.00 in Snow Light Snow
2:29 PM 23.0 °F 9.6 °F 15.8 °F 74% 29.94 in 9.0 mi NNW 16.1 mph - 0.00 in   Overcast
2:45 PM 23.0 °F 10.1 °F 15.8 °F 74% 29.95 in 10.0 mi NNW 15.0 mph - 0.00 in   Overcast
2:53 PM 24.1 °F 11.5 °F 15.1 °F 69% 30.08 in 10.0 mi NNW 15.0 mph - 0.00 in   Overcast
3:53 PM 23.0 °F 11.1 °F 16.0 °F 74% 30.13 in 4.0 mi NW 12.7 mph - 0.00 in Snow Light Snow
4:22 PM 21.2 °F 10.1 °F 15.8 °F 80% 30.00 in 2.5 mi NW 10.4 mph - 0.00 in Snow Light Snow
4:30 PM 21.2 °F 11.7 °F 17.6 °F 86% 30.00 in 1.0 mi NNW 8.1 mph - 0.00 in Snow Light Snow
5:23 PM 19.4 °F 8.6 °F 15.8 °F 86% 30.02 in 2.5 mi NNW 9.2 mph - 0.00 in Snow Light Snow
5:32 PM 19.4 °F 10.4 °F 15.8 °F 86% 30.03 in 4.0 mi NNW 6.9 mph - 0.00 in Snow Light Snow
5:41 PM 19.4 °F 9.5 °F 14.0 °F 80% 30.04 in 9.0 mi NW 8.1 mph - 0.00 in   Overcast
5:53 PM 18.0 °F 6.9 °F 12.9 °F 81% 30.23 in 9.0 mi NNW 9.2 mph - 0.00 in   Overcast
6:22 PM 15.8 °F 7.2 °F 12.2 °F 86% 30.05 in 4.0 mi North 5.8 mph - 0.00 in Snow Light Snow
6:36 PM 12.2 °F 4.3 °F 10.4 °F 92% 30.06 in 9.0 mi NNW 4.6 mph - 0.00 in   Overcast
6:53 PM 10.9 °F -1.8 °F 7.0 °F 84% 30.30 in 10.0 mi NW 9.2 mph - 0.00 in   Overcast
7:53 PM 7.0 °F -4.5 °F 3.0 °F 84% 30.33 in 10.0 mi North 6.9 mph - N/A   Partly Cloudy
8:53 PM 10.0 °F - 5.0 °F 80% 30.33 in 10.0 mi Calm Calm - N/A   Clear
9:53 PM 1.0 °F -6.7 °F -2.9 °F 83% 30.38 in 10.0 mi NNW 3.5 mph - N/A   Clear
10:53 PM 1.0 °F - -2.0 °F 87% 30.39 in 10.0 mi Calm Calm - N/A   Clear
11:53 PM -2.0 °F -10.1 °F -5.1 °F 87% 30.40 in 10.0 mi WNW 3.5 mph - N/A   Clear